Regional Weather Roundup
Issued by NWS

Home | Current Version | Previous Version | Graphics & Text | Print | Product List | Glossary On
Versions: 1 2 3 4 5 6 7 8 9 10 11 12 13 14 15 16 17 18 19 20 21 22 23 24 25 26 27 28 29 30 31 32 33 34 35 36 37 38 39 40 41 42 43 44 45 46 47 48 49 50
000
ASUS43 KDTX 291501
RWRMI
MICHIGAN HOURLY REGIONAL WEATHER ROUNDUP
NATIONAL WEATHER SERVICE DETROIT/PONTIAC MI
1100 AM EDT MON JUN 29 2015

NOTE: "FAIR" INDICATES FEW OR NO CLOUDS BELOW 12,000 FEET WITH NO
SIGNIFICANT WEATHER AND/OR OBSTRUCTION TO VISIBILITY.

MIZ047>049-052>055-059>063-066>070-074>076-081>083-291600-
SOUTHEAST LOWER MICHIGAN

CITY           SKY/WX    TMP DP  RH WIND       PRES   REMARKS
ADRIAN         CLOUDY    68  59  73 S13       29.89S
ALMA           MOSUNNY   73  59  61 SE5       29.86F
ANN ARBOR      PTSUNNY   71  60  68 S8        29.88S
BAD AXE        SUNNY     75  52  43 CALM      29.88S
CARO           SUNNY     75  56  52 S3        29.87S
DETROIT CITY   MOSUNNY   74  58  57 S9        29.88F
DETROIT        PTSUNNY   76  58  53 S10       29.88F
FLINT          MOSUNNY   77  56  48 SE9       29.87F
HILLSDALE      PTSUNNY   68  61  78 S7        29.88S
HOWELL         PTSUNNY   73  58  60 SE6       29.87S

CITY           SKY/WX    TMP DP  RH WIND       PRES   REMARKS
JACKSON        CLOUDY    68  60  75 S6        29.88R
LAMBERTVILLE   CLOUDY    68  59  73 S5        29.90S
LANSING        SUNNY     71  60  68 SW7       29.87S
LAPEER         FAIR      74  53  48 S5        29.88F
MASON          MOSUNNY   69  60  71 S5        29.87S
MONROE         PTSUNNY   71  60  66 SW7       29.88S
MT. CLEMENS    MOSUNNY   72  61  68 E6        29.89S
PONTIAC        PTSUNNY   73  57  57 SE8       29.87F
PORT HOPE        N/A     68  63  84 E3        29.87S
PORT HURON     PTSUNNY   73  59  60 S3        29.89F
TRI CITIES     SUNNY     77  54  44 SE9       29.86F
MIDLAND        FAIR      77  53  43 S6        29.85S
TROY           MOSUNNY   76  56  49 S5        29.90S
$$
MIZ043>046-050>051-056>058-064>065-071>073-077>080-291600-
SOUTHWEST LOWER MICHIGAN

CITY           SKY/WX    TMP DP  RH WIND       PRES   REMARKS
BATTLE CREEK   CLOUDY    68  59  73 S7        29.86F
BENTON HARBOR  CLOUDY    70  62  76 SE9       29.83S
BIG RAPIDS     SUNNY     72  54  53 E5        29.85F
COLDWATER      PTSUNNY   70  59  68 S5        29.86F
FREMONT        FAIR      73  58  59 SE6       29.84S
HOLLAND        PTSUNNY   74  62  66 SE6       29.84F
GRAND RAPIDS   MOSUNNY   73  59  61 VRB3      29.85F
IONIA          FAIR      73  61  65 S6        29.85S
KALAMAZOO      CLOUDY    69  60  73 VRB5      29.86S
LUDINGTON      SUNNY     76  62  62 S3        29.84S
MARSHALL       CLOUDY    69  60  74 S3        29.86F
MOUNT PLEASANT SUNNY     75  56  51 SE6       29.85S
MUSKEGON       PTSUNNY   73  59  61 S3        29.84S
SOUTH HAVEN    CLOUDY    69  61  75 E7        29.83S
$$
MIZ016>042-291600-
NORTHERN LOWER MICHIGAN

CITY           SKY/WX    TMP DP  RH WIND       PRES   REMARKS
BEAVER ISLAND  SUNNY     71  50  46 SW5       29.83S
BELLAIRE       SUNNY     73  48  41 SW5       29.84F
CADILLAC       SUNNY     73  54  50 CALM      29.85F
CHARLEVOIX     SUNNY     74  50  42 SW6       29.87S
FRANKFORT      SUNNY     77  40  27 CALM      29.83F
GAYLORD        SUNNY     72  47  40 VRB7      29.86F
GRAYLING       SUNNY     73  51  46 S3        29.87S
HARBOR SPRINGS SUNNY     73  48  40 SW3       29.84S
HOUGHTON LAKE  SUNNY     73  53  49 VRB3      29.87S
MANISTEE       SUNNY     72  55  56 SE5       29.85S
OSCODA         SUNNY     74  56  52 E7        29.86F
PELLSTON       SUNNY     75  46  35 CALM      29.84F
ROGERS CITY    SUNNY     76  50  40 W3        29.85S
TRAVERSE CITY  MOSUNNY   76  50  40 VRB3      29.83S
$$
MIZ007>008-015-291600-
EASTERN UPPER MICHIGAN

CITY           SKY/WX    TMP DP  RH WIND       PRES   REMARKS
KINROSS        SUNNY     73  57  56 W3        29.83S
MACKINAC ISLAN SUNNY     69  49  49 W7        29.83F
NEWBERRY       SUNNY     71  60  68 SW7       29.82S
S. S. MARIE    SUNNY     72  56  57 CALM      29.81F
MUNISING         N/A     76  58  53 VRB5      29.78F
$$
MIZ004>006-011>014-085-291600-
CENTRAL UPPER MICHIGAN

CITY           SKY/WX    TMP DP  RH WIND       PRES   REMARKS
MANISTIQUE     SUNNY     65  57  73 S6        29.81F
ESCANABA       SUNNY     70  57  64 SE8       29.80S
MENOMINEE      MOSUNNY   72  61  68 S8        29.80F
SAWYER-GWINN   SUNNY     72  57  60 SW8       29.80F
$$
MIZ001>003-009>011-084-291600-
WESTERN UPPER MICHIGAN

CITY           SKY/WX    TMP DP  RH WIND       PRES   REMARKS
IRON MOUNTAIN  SUNNY     72  59  63 VRB3      29.80F
HOUGHTON       MOSUNNY   69  60  73 W5        29.76F
COPPER HARBOR    N/A     60  54  80 NE5       29.75F
IRONWOOD       PTSUNNY   70  64  83 W9        29.76F
$$

ABBREVIATIONS USED IN REMARKS
   TC - TEMPERATURE IN CELSIUS
  WCI - WIND CHILL INDEX
   HX - HEAT INDEX
  VSB - VISIBILITY




USA.gov is the U.S. government's official web portal to all federal, state and local government web resources and services.